Lid_Strength_Index
1 1 1 1 1 1 1 1 1 1 1 1 1 1 1 1 1 1 2 2 2 2 2 3 3 2 3 3 6 7 7 7 7 8 8 8 8 8 9 9 9 9 9
2 1 1 1 1 1 1 1 1 1 0 1 1 1 1 1 1 2 2 3 3 3 3 3 3 5 5 7 8 8 8 8 8 9 9 9 9 9 9 9 9 9 9
3 2 2 2 1 2 1 1 1 1 1 1 1 1 2 2 2 2 2 3 3 3 3 4 5 6 8 8 8 8 9 9 9 10 10 10 10 9 10 10 10 10 10
4 3 2 2 2 1 1 1 1 1 1 2 2 2 2 2 2 2 3 3 4 6 6 7 7 7 7 8 9 9 9 10 10 11 11 11 11 11 11 12 12 12 11
5 4 3 2 1 1 1 2 2 3 3 2 2 3 4 4 5 5 6 6 7 9 9 9 9 10 10 8 8 8 9 10 11 11 11 11 12 12 13 12 12 12 11
7 5 4 5 6 5 5 5 6 7 6 7 7 8 7 8 9 9 8 8 9 9 10 10 10 12 10 9 8 8 8 9 11 11 11 12 11 12 12 12 12 13 13
8 8 8 8 10 10 10 10 10 9 9 10 9 10 10 10 10 10 10 8 9 8 9 10 11 10 10 9 9 9 9 9 9 10 11 11 11 11 12 13 13 12 12
8 9 10 10 11 11 11 11 11 10 10 10 11 11 11 11 10 10 11 9 9 10 11 11 11 11 10 11 10 11 11 11 10 10 10 11 11 11 12 12 12 13 12
9 9 10 10 11 11 11 10 9 10 11 11 11 12 12 13 11 11 11 12 13 13 13 11 10 10 10 10 11 12 12 12 10 10 9 9 9 9 10 12 13 13 14
9 9 9 10 11 12 11 10 11 11 13 12 13 13 14 13 11 11 12 13 14 15 14 13 12 11 11 10 12 12 13 13 13 13 12 12 12 11 10 12 12 14 14
8 9 10 10 11 11 12 12 13 13 13 14 14 14 14 14 12 12 12 13 13 14 14 13 12 10 10 10 11 12 12 12 12 13 13 12 12 12 12 12 12 12 14
9 9 10 11 11 12 13 14 13 14 14 15 15 15 15 15 14 12 11 12 12 14 13 12 12 10 10 10 11 10 10 11 12 12 13 13 13 13 12 13 13 14 14
11 11 12 12 12 13 13 13 14 14 14 15 15 15 15 15 14 12 12 12 13 14 13 12 11 11 10 11 11 11 12 12 12 13 13 13 13 12 13 13 13 13 13
11 12 12 12 12 13 13 13 13 13 14 14 14 14 15 15 14 13 13 14 14 14 14 13 13 12 12 13 13 13 12 12 13 13 13 13 13 13 14 14 14 14 14
12 12 13 12 13 13 12 13 12 12 12 13 13 14 15 16 14 13 14 14 14 14 15 14 14 14 14 14 13 13 13 13 13 14 14 14 15 14 15 14 14 15 15
12 12 12 12 13 13 13 15 13 13 12 12 12 13 15 13 13 13 13 13 13 13 15 15 14 14 14 14 14 14 15 15 15 15 15 15 16 16 16 16 15 16 16
12 12 13 13 13 13 14 15 16 16 14 13 13 14 14 14 14 13 13 13 13 14 15 14 14 14 15 15 15 15 16 16 15 15 16 17 17 18 19 18 17 18 18
12 12 13 13 14 14 14 14 15 16 17 17 14 14 14 14 14 13 13 13 15 14 14 15 15 15 15 16 16 17 18 19 19 20 20 20 20 19 19 19 18 20 19
13 13 13 13 13 14 14 14 15 15 16 16 16 15 14 14 13 13 13 15 16 16 15 16 16 17 18 18 19 20 21 21 22 22 21 22 22 23 23 23 22 23 23
14 14 14 14 14 14 15 16 16 17 19 18 18 19 19 17 16 16 18 17 18 18 18 19 19 20 20 21 21 22 22 23 22 22 22 23 23 24 24 25 25 25 25
17 17 17 17 16 16 16 17 18 18 18 19 20 20 19 18 19 20 21 20 20 20 20 21 22 22 22 22 22 23 23 22 23 24 24 24 25 26 25 24 25 25 25
20 20 19 18 18 19 20 20 20 20 21 22 22 20 19 22 22 22 22 22 22 22 21 22 23 23 23 23 23 23 23 23 24 25 25 27 27 27 27 27 27 26 26
22 22 22 23 22 22 22 21 21 22 22 22 23 24 23 23 23 23 24 24 24 25 25 24 23 25 25 25 24 23 24 25 25 25 27 27 28 27 28 27 27 28 28
23 23 24 24 23 23 24 24 24 24 23 24 24 24 24 24 24 24 24 25 25 25 25 26 25 25 25 26 26 26 26 27 28 28 29 28 28 29 28 28 27 28 28
24 24 24 24 24 24 24 25 25 24 25 25 25 25 25 25 25 25 25 25 25 25 26 26 26 26 26 26 26 27 27 26 29 28 29 28 29 29 28 28 28 28 28
26 25 25 25 25 25 25 25 25 25 25 25 25 25 25 25 24 24 24 25 26 26 26 26 26 26 26 26 26 27 27 26 28 28 28 27 26 27 26 26 28 28 27